Volver al catálogo

THOR ABLESTAR DEB

ActivoLEO
NORAD 3752·DEBRIS·🇺🇸 United States

Lanzado Jun 29, 1961 desde Cape Canaveral Space Force Station

Loading…

Próximos Pases (próximas 24 horas)

TLE

ActualizadoSource: Space-Track

Época: Sep 14, 2026, 01:42 UTC

1 03752U 61015JE  26257.07114009  .00000421  00000-0  65398-3 0  9995
2 03752  67.6273 276.7201 0205320 170.6247 222.7953 13.51205978817269

Sigue THOR ABLESTAR DEB en tiempo real con AllMySat

Download on the App Store